Change the Weather History Date:

Friday, May 3, 2013

  Actual Average (KMMV) Record (KMMV)
Temperature  
Mean Temperature 52 °F 53 °F  
Max Temperature 68 °F 65 °F 87 °F (1992)
Min Temperature 37 °F 41 °F 26 °F (1952)
Degree Days  
Heating Degree Days 12 12  
Month to date heating degree days 36  
Since 1 July heating degree days 4434  
Cooling Degree Days 0 0  
Month to date cooling degree days 0  
Year to date cooling degree days 0  
Growing Degree Days 2 (Base 50)    
Moisture  
Dew Point 44 °F    
Average Humidity 72    
Maximum Humidity 100    
Minimum Humidity 46    
Precipitation  
Precipitation 0.00 in 0.07 in 1.05 in (1948)
Month to date precipitation 0.20  
Year to date precipitation 17.68  
Sea Level Pressure  
Sea Level Pressure 30.27 in    
Wind  
Wind Speed 3 mph (NNW)    
Max Wind Speed 15 mph    
Max Gust Speed 21 mph    
Visibility 10 miles    
Events      
T = Trace of Precipitation, MM = Missing Value Source: NWS Daily Summary

Daily Weather History Graph

Daily Weather History Graph

Search for Another Location

Airport or City:

Trip Planner

Search our weather history database for the weather conditions in past years. The results will help you decide how hot, cold, wet, or windy it might be!

Date:

Astronomy

May. 03, 2013 Rise Set
Actual Time 7:00 AM MDT 9:24 PM MDT
Civil Twilight 6:27 AM MDT 9:57 PM MDT
Nautical Twilight 5:46 AM MDT 10:39 PM MDT
Astronomical Twilight 4:59 AM MDT 11:26 PM MDT
Moon 3:46 AM MDT (5/3) 3:08 PM MDT (5/3)
Length of Visible Light 15h 30m
Length of Day
14h 24m
Last Quarter, 36% of the Moon is Illuminated
May 3
Last Quarter
May 9
New
May 17
First Quarter
May 24
Full
May 31
Last Quarter

Hourly Weather History & Observations

Time (MDT) Temp. Windchill Dew Point Humidity Pressure Visibility Wind Dir Wind Speed Gust Speed Precip Events Conditions
12:15 AM 48.2 °F - 42.8 °F 82% 30.33 in 10.0 mi North 8.1 mph - N/A   Clear
12:35 AM 48.2 °F - 42.8 °F 82% 30.34 in 10.0 mi Calm Calm - N/A   Clear
12:55 AM 48.2 °F - 41.0 °F 76% 30.34 in 10.0 mi Calm Calm - N/A   Clear
1:15 AM 44.6 °F - 39.2 °F 81% 30.34 in 10.0 mi Calm Calm - N/A   Clear
1:35 AM 44.6 °F - 41.0 °F 87% 30.33 in 10.0 mi Calm Calm - N/A   Clear
1:55 AM 44.6 °F - 41.0 °F 87% 30.33 in 10.0 mi Calm Calm - N/A   Clear
2:15 AM 44.6 °F - 41.0 °F 87% 30.33 in 10.0 mi Calm Calm - N/A   Clear
2:35 AM 42.8 °F 40.1 °F 39.2 °F 87% 30.33 in 10.0 mi South 4.6 mph - N/A   Clear
2:55 AM 44.6 °F - 41.0 °F 87% 30.33 in 10.0 mi Calm Calm - N/A   Clear
3:15 AM 42.8 °F - 39.2 °F 87% 30.34 in 10.0 mi Calm Calm - N/A   Clear
3:35 AM 42.8 °F - 39.2 °F 87% 30.33 in 7.0 mi Calm Calm - N/A   Clear
3:55 AM 42.8 °F - 39.2 °F 87% 30.33 in 10.0 mi Calm Calm - N/A   Clear
4:15 AM 41.0 °F - 37.4 °F 87% 30.33 in 10.0 mi Calm Calm - N/A   Clear
4:35 AM 41.0 °F - 39.2 °F 93% 30.33 in 10.0 mi Calm Calm - N/A   Clear
4:55 AM 41.0 °F - 37.4 °F 87% 30.32 in 10.0 mi Calm Calm - N/A   Clear
5:15 AM 39.2 °F - 37.4 °F 93% 30.32 in 10.0 mi Calm Calm - N/A   Clear
5:35 AM 39.2 °F - 37.4 °F 93% 30.32 in 10.0 mi Calm Calm - N/A   Clear
5:55 AM 39.2 °F - 37.4 °F 93% 30.33 in 10.0 mi Calm Calm - N/A   Clear
6:15 AM 39.2 °F - 37.4 °F 93% 30.32 in 10.0 mi Calm Calm - N/A   Clear
6:35 AM 37.4 °F 34.9 °F 35.6 °F 93% 30.32 in 10.0 mi SSE 3.5 mph - N/A   Clear
6:55 AM 39.2 °F - 37.4 °F 93% 30.32 in 5.0 mi Calm Calm - N/A   Clear
7:15 AM 37.4 °F - 37.4 °F 100% 30.32 in 10.0 mi Calm Calm - N/A   Clear
7:35 AM 37.4 °F - 35.6 °F 93% 30.33 in 10.0 mi Calm Calm - N/A   Clear
7:55 AM 39.2 °F - 39.2 °F 100% 30.33 in 10.0 mi Calm Calm - N/A   Clear
8:15 AM 41.0 °F - 39.2 °F 93% 30.33 in 7.0 mi Calm Calm - N/A   Clear
8:35 AM 42.8 °F - 41.0 °F 93% 30.33 in 10.0 mi Calm Calm - N/A   Clear
8:55 AM 44.6 °F - 42.8 °F 93% 30.33 in 7.0 mi Calm Calm - N/A   Clear
9:15 AM 46.4 °F - 42.8 °F 87% 30.33 in 10.0 mi Calm Calm - N/A   Clear
9:35 AM 48.2 °F - 44.6 °F 87% 30.32 in 10.0 mi Calm Calm - N/A   Clear
9:55 AM 51.8 °F - 42.8 °F 71% 30.32 in 10.0 mi Calm Calm - N/A   Clear
10:15 AM 53.6 °F - 44.6 °F 72% 30.31 in 10.0 mi Calm Calm - N/A   Clear
10:35 AM 55.4 °F - 44.6 °F 67% 30.30 in 10.0 mi Calm Calm - N/A   Clear
10:55 AM 57.2 °F - 46.4 °F 67% 30.29 in 10.0 mi Calm Calm - N/A   Clear
11:15 AM 59.0 °F - 46.4 °F 63% 30.30 in 10.0 mi North 3.5 mph - N/A   Clear
11:35 AM 60.8 °F - 48.2 °F 63% 30.29 in 10.0 mi Calm Calm - N/A   Clear
11:55 AM 62.6 °F - 46.4 °F 55% 30.29 in 10.0 mi NNW 5.8 mph - N/A   Clear
12:15 PM 64.4 °F - 46.4 °F 52% 30.29 in 10.0 mi NNW 8.1 mph - N/A   Clear
12:35 PM 64.4 °F - 44.6 °F 49% 30.28 in 10.0 mi North 5.8 mph - N/A   Clear
12:55 PM 66.2 °F - 46.4 °F 49% 30.27 in 10.0 mi NNW 9.2 mph - N/A   Clear
1:15 PM 68.0 °F - 46.4 °F 46% 30.26 in 10.0 mi NNW 4.6 mph - N/A   Clear
1:35 PM 68.0 °F - 48.2 °F 49% 30.26 in 10.0 mi NNW 9.2 mph - N/A   Clear
1:55 PM 68.0 °F - 48.2 °F 49% 30.26 in 10.0 mi NW 15.0 mph - N/A   Clear
2:15 PM 66.2 °F - 48.2 °F 52% 30.26 in 10.0 mi NW 15.0 mph - N/A   Clear
2:35 PM 64.4 °F - 48.2 °F 56% 30.26 in 10.0 mi NW 12.7 mph 16.1 mph N/A   Clear
2:55 PM 64.4 °F - 48.2 °F 56% 30.26 in 10.0 mi NW 15.0 mph - N/A   Clear
3:15 PM 64.4 °F - 50.0 °F 59% 30.25 in 10.0 mi NW 15.0 mph - N/A   Clear
3:35 PM 66.2 °F - 48.2 °F 52% 30.24 in 10.0 mi NNW 12.7 mph - N/A   Clear
3:55 PM 68.0 °F - 50.0 °F 52% 30.24 in 10.0 mi NNW 10.4 mph 17.3 mph N/A   Clear
4:15 PM 68.0 °F - 48.2 °F 49% 30.23 in 10.0 mi NNW 11.5 mph - N/A   Clear
4:35 PM 68.0 °F - 48.2 °F 49% 30.22 in 10.0 mi NNW 11.5 mph 16.1 mph N/A   Clear
4:55 PM 68.0 °F - 48.2 °F 49% 30.22 in 10.0 mi NW 10.4 mph 18.4 mph N/A   Clear
5:15 PM 66.2 °F - 46.4 °F 49% 30.22 in 10.0 mi NW 13.8 mph 19.6 mph N/A   Clear
5:35 PM 66.2 °F - 46.4 °F 49% 30.21 in 10.0 mi NW 12.7 mph 18.4 mph N/A   Clear
5:55 PM 64.4 °F - 46.4 °F 52% 30.21 in 10.0 mi NW 15.0 mph 20.7 mph N/A   Clear
6:15 PM 64.4 °F - 46.4 °F 52% 30.21 in 10.0 mi NW 12.7 mph 19.6 mph N/A   Clear
6:35 PM 62.6 °F - 46.4 °F 55% 30.21 in 10.0 mi NW 9.2 mph - N/A   Clear
6:55 PM 62.6 °F - 48.2 °F 59% 30.20 in 10.0 mi NW 9.2 mph - N/A   Clear
7:15 PM 62.6 °F - 48.2 °F 59% 30.20 in 10.0 mi NNW 5.8 mph - N/A   Clear
7:35 PM 64.4 °F - 48.2 °F 56% 30.19 in 10.0 mi NW 5.8 mph - N/A   Clear
7:55 PM 60.8 °F - 46.4 °F 59% 30.19 in 10.0 mi WNW 3.5 mph - N/A   Clear
8:15 PM 60.8 °F - 48.2 °F 63% 30.19 in 10.0 mi Calm Calm - N/A   Clear
8:35 PM 60.8 °F - 48.2 °F 63% 30.18 in 10.0 mi Calm Calm - N/A   Clear
8:55 PM 59.0 °F - 48.2 °F 67% 30.18 in 10.0 mi Calm Calm - N/A   Clear
9:15 PM 59.0 °F - 48.2 °F 67% 30.19 in 10.0 mi North 5.8 mph - N/A   Clear
9:35 PM 55.4 °F - 46.4 °F 72% 30.19 in 10.0 mi NNE 4.6 mph - N/A   Clear
9:55 PM 55.4 °F - 46.4 °F 72% 30.19 in 10.0 mi Calm Calm - N/A   Clear
10:15 PM 55.4 °F - 46.4 °F 72% 30.19 in 10.0 mi Calm Calm - N/A   Clear
10:35 PM 51.8 °F - 46.4 °F 82% 30.19 in 10.0 mi ENE 4.6 mph - N/A   Clear
10:55 PM 53.6 °F - 48.2 °F 82% 30.19 in 10.0 mi Calm Calm - N/A   Clear
11:15 PM 53.6 °F - 48.2 °F 82% 30.18 in 10.0 mi Calm Calm - N/A   Clear
11:35 PM 50.0 °F - 44.6 °F 82% 30.18 in 10.0 mi Calm Calm - N/A   Clear
11:55 PM 48.2 °F - 44.6 °F 87% 30.17 in 10.0 mi Calm Calm - N/A   Clear